CZ-6A DEB

Satellite information

Favourite Embed

Satellite Type and Status

DEBRISIN ORBIT

Key statistics

Satellite CZ-6A DEB at a glance.

Uptime

908

Days in orbit

Revolutions

≈ 14.2

Per day

Orbit

SSO

Sun Synchronous Orbit

Inclination

98.8

Latest

Satellite identification and parameters

Extended collection of information and parameters for CZ-6A DEB.

Object identification

Identified? True

Debris? True

Object name: CZ-6A DEB

International designator: 2022-151AGC

Object number (NORAD): 56652

Object ID (CCSDS): 56652

Country: PEOPLES REPUBLIC OF CHINA (PRC)

Current information (Y/N): Y

RCS size: SMALL

Orbital parameters

Period: 101.244 minutes

Inclination: 98.8226 deg

SMA: 7195.685 km

Apoapsis: 878.172 km

Periapsis: 756.927 km

RAAN: 136.1605 deg

Eccentricy: 0.0084249

Argument of periapsis: 81.3806 deg

Mean anomaly: 279.6905 deg

Mean motion: 14.22311062 rev/day

Mean motion (dot): 0.00007295 rev/day2

B* drag term: 0.0031814 1/REarth

Two-line elements (TLE)

Creation date: May 7, 2025, 3:14 a.m.

Reference frame: TEME

Reference center: EARTH

Epoch: May 5, 2025, 11:11 p.m. UTC

TLE line 0: 0 CZ-6A DEB

TLE line 1: 1 56652U 22151AGC 25125.96612423 .00007295 00000-0 31814-2 0 9995

TLE line 2: 2 56652 98.8226 136.1605 0084249 81.3806 279.6905 14.22311062113517

Live tracking on map

Real-time ground track for satellite CZ-6A DEB.

In-orbit conjunctions

A list of the most updated potential collisions computed for object CZ-6A DEB.

Target Orbit TCA Probability of collision Miss distance Type
SL-8 R/B LEO 2025-03-18 21:20:56 0.0001410038 311.0 (m) ROCKET BODY
COSMOS 1777 LEO 2024-11-07 04:43:14 0.0003027825 164.0 (m) PAYLOAD
SL-3 R/B LEO 2024-06-19 12:27:01 0.0001995604 236.0 (m) ROCKET BODY

Associated space launch

Chinese satellite reported for atmospheric/ocean/environmental/spatial parameter research purposes, details TBD.

CZ-6A DEB was lifted into orbit during the mission ‘Long March 6A | Yunhai 3’, on board a Long March 6A space rocket.

The launch took place on Nov. 11, 2022, 10:52 p.m. from Launch Complex 9A.

For more information about the launch, click the button.

Launch to space Long March 6A | Yunhai 3
Long March 6A | Yunhai 3

Agency: N/A

Status: Launch Successful

Launch date: Nov. 11, 2022, 10:52 p.m. UTC

Rocket: Long March 6A

Launch pad: Launch Complex 9A

Location: Taiyuan Satellite Launch Center, People's Republic of China

...

Latest news about this satellite

There are no fresh news available about this satellite. Check back as we update our databases every day.


Newsletter sign-up

Weekly statistics, charts and insights to help you stay on top of the space industry.